This is the latest recevied weather packets stored in our database for station/object G4GVZ-1. If no packets are shown the sender has not sent any weather packets the latest 10 day(s).
| Time | Temp. | Humidity | Pressure | Rain* | Wind** | Luminosity | Snow |
|---|---|---|---|---|---|---|---|
| 1777561252 | 22.22° C | 33% | 1018.4 hPa | 0 mm | - | - | - |
| 1777560350 | 22.22° C | 33% | 1018.5 hPa | 0 mm | - | - | - |
| 1777559453 | 22.78° C | 33% | 1018.7 hPa | 0 mm | - | - | - |
| 1777558551 | 22.22° C | 34% | 1018.7 hPa | 0 mm | - | - | - |
| 1777557651 | 22.22° C | 33% | 1018.8 hPa | 0 mm | - | - | - |
| 1777556751 | 21.67° C | 34% | 1018.8 hPa | 0 mm | - | - | - |
| 1777555850 | 21.67° C | 33% | 1018.9 hPa | 0 mm | - | - | - |
| 1777554950 | 21.67° C | 34% | 1019.2 hPa | 0 mm | - | - | - |
| 1777554052 | 21.67° C | 33% | 1019.1 hPa | 0 mm | - | - | - |
| 1777553152 | 21.11° C | 35% | 1019.3 hPa | 0 mm | - | - | - |
| 1777552569 | 21.11° C | 35% | 1019.3 hPa | 0 mm | - | - | - |
| 1777552252 | 21.11° C | 35% | 1019.3 hPa | 0 mm | - | - | - |
| 1777551352 | 20.56° C | 35% | 1019.3 hPa | 0 mm | - | - | - |
| 1777550452 | 20.56° C | 37% | 1019.3 hPa | 0 mm | - | - | - |
| 1777550023 | 20° C | 37% | 1019.7 hPa | 0 mm | - | - | - |
| 1777549551 | 20° C | 37% | 1019.7 hPa | 0 mm | - | - | - |
| 1777548651 | 20° C | 39% | 1019.6 hPa | 0 mm | - | - | - |
| 1777547751 | 19.44° C | 40% | 1019.7 hPa | 0 mm | - | - | - |
| 1777546851 | 19.44° C | 41% | 1019.9 hPa | 0 mm | - | - | - |
| 1777545948 | 18.89° C | 45% | 1020 hPa | 0 mm | - | - | - |
| 1777545048 | 18.33° C | 45% | 1020 hPa | 0 mm | - | - | - |
| 1777544148 | 18.33° C | 46% | 1020.2 hPa | 0 mm | - | - | - |
| 1777543248 | 17.78° C | 48% | 1020.4 hPa | 0 mm | - | - | - |
| 1777542347 | 17.22° C | 52% | 1020.3 hPa | 0 mm | - | - | - |
| 1777541449 | 16.67° C | 52% | 1020.5 hPa | 0 mm | - | - | - |
* Rain latest hour (hover to see other rain measurements)
** Current wind speed in m/s (hover to see current wind gust speed)